Flight Track Log - Related Links

Times and Time Zones

All times are in EDT time to prevent confusion due to time zone crossing. See the SKW5199 flight status page for this flight to view local times or setup timezone preferences in your user account.


Time Position Orientation Groundspeed Altitude Reporting Facility
EDT Latitude Longitude Course Direction KTS MPH feet Rate Location/Type
Mon 08:22:14 PM 37.3392 -93.3475 42° Northeast 240 276 5,800  Level Kansas City Center
Mon 08:23:15 PM 37.3900 -93.2742 49° Northeast 263 303 9,300 2,777 Climbing Kansas City Center
Mon 08:24:00 PM 37.6094 -92.8494 55° Northeast  Level FlightAware Approximate
Mon 08:24:15 PM 37.4372 -93.1864 56° Northeast 299 344 11,400  Level Kansas City Center
Mon 08:25:00 PM 37.6765 -92.7265 55° Northeast  Level FlightAware Approximate
Mon 08:25:19 PM 37.4906 -93.0878 56° Northeast 331 381 13,300  Level Kansas City Center
Mon 08:26:00 PM 37.7410 -92.6014 58° Northeast  Level FlightAware Approximate
Mon 08:26:20 PM 37.5489 -92.9831 55° Northeast 348 400 14,800  Level Kansas City Center
Mon 08:27:22 PM 37.6203 -92.8500 56° Northeast 374 430 17,400 2,132 Climbing Kansas City Center
Mon 08:28:21 PM 37.6892 -92.7492 49° Northeast 378 435 19,100 1,463 Climbing Kansas City Center
Mon 08:29:25 PM 37.7658 -92.6831 34° Northeast 387 445 20,400 1,500 Climbing Kansas City Center
Mon 08:30:25 PM 37.8769 -92.5872 34° Northeast 399 459 22,200 1,488 Climbing Kansas City Center
Mon 08:31:26 PM 37.9717 -92.5044 35° Northeast 407 468 23,400 1,171 Climbing Kansas City Center
Mon 08:32:28 PM 38.0681 -92.4203 34° Northeast 415 478 24,600 1,268 Climbing Kansas City Center
Mon 08:33:29 PM 38.1658 -92.3369 34° Northeast 419 482 26,000 1,152 Climbing Kansas City Center
Mon 08:34:33 PM 38.2694 -92.2467 34° Northeast 425 489 27,000 960 Climbing Kansas City Center
Mon 08:35:34 PM 38.3692 -92.1600 34° Northeast 426 490 28,000 976 Climbing Kansas City Center
Mon 08:36:36 PM 38.4694 -92.0725 34° Northeast 430 495 29,000 968 Climbing Kansas City Center
Mon 08:37:38 PM 38.5697 -91.9844 34° Northeast 433 498 30,000 984 Climbing Kansas City Center
Mon 08:38:38 PM 38.6681 -91.8953 35° Northeast 433 498 31,000 496 Climbing Kansas City Center
Mon 08:39:39 PM 38.7678 -91.8067 35° Northeast 433 498 31,000  Level Kansas City Center
Mon 08:40:40 PM 38.8847 -91.7022 35° Northeast 449 517 31,000  Level Kansas City Center
Mon 08:41:41 PM 38.9908 -91.6078 35° Northeast 459 528 31,000  Level Kansas City Center
Mon 08:42:45 PM 39.0978 -91.5133 34° Northeast 462 532 31,000  Level Kansas City Center
Mon 08:43:45 PM 39.2042 -91.4175 35° Northeast 463 533 31,000  Level Kansas City Center
Mon 08:44:46 PM 39.3108 -91.3217 35° Northeast 463 533 31,000  Level Kansas City Center
Mon 08:45:49 PM 39.4144 -91.2278 35° Northeast 462 532 31,000  Level Kansas City Center
Mon 08:46:49 PM 39.5172 -91.1336 35° Northeast 458 527 31,000  Level Kansas City Center
Mon 08:47:50 PM 39.6414 -91.0208 35° Northeast 457 526 31,000  Level Kansas City Center
Mon 08:48:54 PM 39.7450 -90.9244 36° Northeast 456 525 31,000  Level Kansas City Center
Mon 08:49:55 PM 39.8522 -90.8261 35° Northeast 457 526 31,000  Level Kansas City Center
Mon 08:50:56 PM 39.9564 -90.7311 35° Northeast 457 526 31,000  Level Kansas City Center
Mon 08:51:57 PM 40.0597 -90.6325 36° Northeast 457 526 31,000  Level Kansas City Center
Mon 08:52:58 PM 40.1644 -90.5353 35° Northeast 457 526 31,000  Level Kansas City Center
Mon 08:54:00 PM 40.2694 -90.4381 35° Northeast 459 528 31,000  Level Kansas City Center
Mon 08:54:41 PM 40.3528 -90.3606 35° Northeast 461 531 31,000  Level Chicago Center
Mon 08:55:43 PM 40.4581 -90.2611 36° Northeast 462 532 31,000 -290 Level Chicago Center
Mon 08:56:45 PM 40.5531 -90.1689 36° Northeast 463 533 30,400 -774 Descending Chicago Center
Mon 08:57:47 PM 40.6442 -90.0414 47° Northeast 477 549 29,400 -1,065 Descending Chicago Center
Mon 08:58:49 PM 40.7503 -89.8817 49° Northeast 482 555 28,200 -1,065 Descending Chicago Center
Mon 08:59:51 PM 40.8333 -89.7486 50° Northeast 475 547 27,200 -968 Descending Chicago Center
Mon 09:00:53 PM 40.9178 -89.6186 49° Northeast 472 543 26,200 -968 Descending Chicago Center
Mon 09:01:55 PM 40.9989 -89.4928 49° Northeast 463 533 25,200 -919 Descending Chicago Center
Mon 09:02:57 PM 41.0797 -89.3656 50° Northeast 456 525 24,300 -927 Descending Chicago Center
Mon 09:03:58 PM 41.1589 -89.2414 50° Northeast 446 513 23,300 -1,122 Descending Chicago Center
Mon 09:05:00 PM 41.2544 -89.0919 50° Northeast 441 507 22,000 -1,887 Descending Chicago Center
Mon 09:06:02 PM 41.3264 -88.9733 51° Northeast 414 476 19,400 -2,903 Descending Chicago Center
Mon 09:07:04 PM 41.3975 -88.8622 50° Northeast 397 457 16,000 -3,242 Descending Chicago Center
Mon 09:08:06 PM 41.4667 -88.7508 50° Northeast 354 407 12,700 -2,419 Descending Chicago Center
Mon 09:09:08 PM 41.5258 -88.6564 50° Northeast 335 386 11,000 -823 Descending Chicago Center
Mon 09:10:10 PM 41.5842 -88.5614 51° Northeast 333 383 11,000 -387 Level Chicago Center
Mon 09:11:12 PM 41.6450 -88.4636 50° Northeast 321 369 10,200 -871 Descending Chicago Center
Mon 09:12:14 PM 41.7006 -88.4022 40° Northeast 273 314 9,200 -968 Descending Chicago Center
Mon 09:13:16 PM 41.7706 -88.3586 25° Northeast 262 302 8,200 -968 Descending Chicago Center
Mon 09:14:18 PM 41.8333 -88.3181 26° Northeast 249 287 7,200 -1,065 Descending Chicago Center
Mon 09:15:20 PM 41.8967 -88.2764 26° Northeast 253 291 6,000 -1,024 Descending Chicago Center
Mon 09:16:21 PM 41.9392 -88.2019 52° Northeast 233 268 5,100 -927 Descending Chicago Center
Mon 09:17:23 PM 41.9581 -88.1297 71° East 209 241 4,100 -1,210 Descending Chicago Center
Mon 09:18:25 PM 41.9628 -88.0486 85° East 202 232 2,600 -1,161 Descending Chicago Center
Mon 09:19:27 PM 41.9647 -87.9922 87° East 155 178 1,700 -823 Descending Chicago Center
Mon 09:20:29 PM 41.9644 -87.9425 90° East 137 158 900 -774 Descending Chicago Center

Login

Don't have an account? Register now (free) for customized features, flight alerts, and more!